Tracking 20624 objects as of 28-Mar-2020
HD Live streaming from Space Station
objects crossing your sky now

COSMOS 624

Track COSMOS 624 now!
10-day predictions
COSMOS 624 is classified as:


NORAD ID: 6992
Int'l Code: 1973-104H
Perigee: 1,358.4 km
Apogee: 1,491.5 km
Inclination: 74.0 °
Period: 114.2 minutes
Semi major axis: 7795 km
RCS: 0.676 m2 (medium)
Launch date: December 19, 1973
Source: Commonwealth of Independent States (former USSR) (CIS)
Launch site: PLESETSK MISSILE AND SPACE COMPLEX (PKMTR)
aabbcc
Your satellite tracking list
Your tracking list is empty




NASA's NSSDC Master Catalog

Two Line Element Set (TLE):
1  6992U 73104H   20087.45761304 +.00000007 +00000-0 +12857-3 0  9991
2  6992 074.0328 352.0583 0085369 089.5318 083.3388 12.61243234130334
Source of the keplerian elements: AFSPC